Newport, RI

4:52 AM EDT on April 29, 2017 (GMT -0400)
Newport State

Weather History for KUUU - September, 2013

Change the Weather History Date:

Monday, September 9, 2013

  Actual Average Record
Temperature  
Mean Temperature 56 °F -  
Max Temperature 64 °F 72 °F 91 °F (2016)
Min Temperature 48 °F 56 °F 42 °F (1982)
Degree Days  
Heating Degree Days 9    
Growing Degree Days 6 (Base 50)    
Moisture  
Dew Point 46 °F    
Average Humidity 65    
Maximum Humidity 77    
Minimum Humidity 48    
Precipitation  
Precipitation 0.00 in - - ()
Sea Level Pressure  
Sea Level Pressure 30.19 in    
Wind  
Wind Speed 5 mph (SW)    
Max Wind Speed 10 mph    
Max Gust Speed 16 mph    
Visibility 10 miles    
Events      
Averages and records for this station are not official NWS values.
T = Trace of Precipitation, MM = Missing Value Source: NWS Daily Summary

Daily Weather History Graph

Daily Weather History Graph

Search for Another Location

Airport or City:

Trip Planner

Search our weather history database for the weather conditions in past years. The results will help you decide how hot, cold, wet, or windy it might be!

Date:

Astronomy

Sep. 09, 2013 Rise Set
Actual Time 6:19 AM EDT 7:04 PM EDT
Civil Twilight 5:51 AM EDT 7:32 PM EDT
Nautical Twilight 5:18 AM EDT 8:05 PM EDT
Astronomical Twilight 4:43 AM EDT 8:39 PM EDT
Moon 10:41 AM EDT (9/9) 9:14 PM EDT (9/9)
Length of Visible Light 13h 40m
Length of Day
12h 44m
Waxing Crescent, 19% of the Moon is Illuminated
Sep 9
Waxing Crescent
Sep 12
First Quarter
Sep 19
Full
Sep 26
Last Quarter
Oct 4
New

Hourly Weather History & Observations

Time (EDT) Temp. Dew Point Humidity Pressure Visibility Wind Dir Wind Speed Gust Speed Precip Events Conditions
12:53 AM 54.0 °F 39.9 °F 59% 30.10 in 10.0 mi North 6.9 mph - N/A   Clear
1:53 AM 52.0 °F 41.0 °F 66% 30.11 in 10.0 mi North 3.5 mph - N/A   Clear
2:53 AM 48.9 °F 41.0 °F 74% 30.12 in 10.0 mi NNE 4.6 mph - N/A   Clear
3:53 AM 50.0 °F 41.0 °F 71% 30.13 in 10.0 mi North 3.5 mph - N/A   Clear
4:53 AM 50.0 °F 41.0 °F 71% 30.16 in 10.0 mi North 5.8 mph - N/A   Clear
5:53 AM 48.9 °F 42.1 °F 77% 30.18 in 10.0 mi North 4.6 mph - N/A   Clear
6:53 AM 50.0 °F 43.0 °F 77% 30.21 in 10.0 mi North 4.6 mph - N/A   Clear
7:53 AM 54.0 °F 44.1 °F 69% 30.22 in 10.0 mi North 3.5 mph - N/A   Clear
8:53 AM 57.9 °F 45.0 °F 62% 30.23 in 10.0 mi NNW 3.5 mph - N/A   Clear
9:53 AM 61.0 °F 46.0 °F 58% 30.24 in 10.0 mi NNW 3.5 mph - N/A   Clear
10:53 AM 63.0 °F 43.0 °F 48% 30.23 in 10.0 mi SSW 5.8 mph - N/A   Clear
11:53 AM 62.1 °F 46.0 °F 56% 30.23 in 10.0 mi South 5.8 mph - N/A   Clear
12:53 PM 63.0 °F 48.9 °F 60% 30.22 in 10.0 mi South 9.2 mph - N/A   Clear
1:53 PM 64.0 °F 48.9 °F 58% 30.22 in 10.0 mi SSE 10.4 mph - N/A   Clear
2:53 PM 63.0 °F 48.9 °F 60% 30.21 in 10.0 mi South 9.2 mph - N/A   Clear
3:53 PM 62.1 °F 48.0 °F 60% 30.20 in 10.0 mi Variable 5.8 mph 16.1 mph N/A   Clear
4:53 PM 62.1 °F 50.0 °F 65% 30.21 in 10.0 mi SSW 5.8 mph - N/A   Clear
5:53 PM 62.1 °F 50.0 °F 65% 30.19 in 10.0 mi SSW 5.8 mph - N/A   Clear
6:53 PM 61.0 °F 48.9 °F 64% 30.19 in 10.0 mi SSW 4.6 mph - N/A   Clear
7:53 PM 59.0 °F 48.0 °F 67% 30.18 in 10.0 mi SSW 3.5 mph - N/A   Clear
8:53 PM 59.0 °F 50.0 °F 72% 30.19 in 10.0 mi SSW 4.6 mph - N/A   Clear
9:53 PM 61.0 °F 50.0 °F 67% 30.19 in 10.0 mi SSW 5.8 mph - N/A   Clear
10:53 PM 62.1 °F 52.0 °F 70% 30.19 in 10.0 mi SSW 4.6 mph - N/A   Clear
11:53 PM 61.0 °F 52.0 °F 72% 30.17 in 10.0 mi SSW 6.9 mph - N/A   Clear